#�ϑ�����,���ϕ���,���ϕ���,�ő啗��,�ő啗����������,�ő�u�ԕ���,�ő�u�ԕ�����������
#(�N����),(m/s)   ,(16����),(m/s)   ,(16����)        ,(m/s)       ,(16����)            
2012/8/16 0:01,1.1,3,1.1,3,1.4,4
2012/8/16 0:02,1.2,3,1.2,3,3.2,4
2012/8/16 0:03,1.4,3,1.4,3,3.1,3
2012/8/16 0:04,1.4,3,1.4,3,2.6,4
2012/8/16 0:05,1.5,3,1.5,3,3.9,3
2012/8/16 0:06,1.6,3,1.6,3,3.3,4
2012/8/16 0:07,1.7,3,1.7,3,2.5,3
2012/8/16 0:08,1.7,4,1.8,4,2.1,2
2012/8/16 0:09,1.8,3,1.8,4,2.5,4
2012/8/16 0:10,1.8,4,1.8,4,2.5,4
2012/8/16 0:11,1.8,4,1.8,4,1.8,3
2012/8/16 0:12,1.8,4,1.8,4,1.6,3
2012/8/16 0:13,1.6,3,1.7,4,1.1,2
2012/8/16 0:14,1.6,3,1.6,4,1.9,3
2012/8/16 0:15,1.4,3,1.6,4,1.5,5
2012/8/16 0:16,1.3,3,1.4,4,2.5,3
2012/8/16 0:17,1.2,3,1.3,4,2.2,3
2012/8/16 0:18,1.1,3,1.2,4,1.3,3
2012/8/16 0:19,1.1,3,1.1,3,1.3,4
2012/8/16 0:20,1.1,3,1.1,4,1.8,3
2012/8/16 0:21,1.1,3,1.1,4,2.5,3
2012/8/16 0:22,1.2,3,1.2,4,2.9,3
2012/8/16 0:23,1.3,3,1.3,3,3.7,5
2012/8/16 0:24,1.4,4,1.4,3,3.3,4
2012/8/16 0:25,1.6,4,1.6,4,3.5,4
2012/8/16 0:26,1.7,4,1.7,4,2.5,3
2012/8/16 0:27,1.8,3,1.8,3,3.8,2
2012/8/16 0:28,1.9,3,1.9,3,3.6,3
2012/8/16 0:29,2,3,2,3,2.7,4
2012/8/16 0:30,2.1,3,2.1,3,3.1,2
2012/8/16 0:31,2.1,3,2.1,3,3.5,4
2012/8/16 0:32,2.1,3,2.1,3,2.7,3
2012/8/16 0:33,2.1,3,2.1,3,3.2,3
2012/8/16 0:34,2.1,3,2.1,3,2.4,3
2012/8/16 0:35,2,3,2.1,3,3.3,2
2012/8/16 0:36,2,3,2,3,3.2,3
2012/8/16 0:37,2,3,2,3,3.8,3
2012/8/16 0:38,2,3,2,3,3,3
2012/8/16 0:39,2,3,2,3,2.2,3
2012/8/16 0:40,2,3,2,3,3.2,4
2012/8/16 0:41,2,3,2,3,2.4,2
2012/8/16 0:42,1.9,3,2,3,2,3
2012/8/16 0:43,1.8,3,1.9,3,2.4,4
2012/8/16 2:20,1.9,3,1.9,3,1.9,3
2012/8/16 2:21,1.8,3,1.9,3,2.1,3
2012/8/16 2:22,2,3,2.1,3,3.2,3
2012/8/16 2:23,2.1,3,2.1,3,2.7,3
2012/8/16 2:24,2,3,2.1,3,2.6,3
2012/8/16 2:25,1.9,4,2,3,2.1,4
2012/8/16 2:26,1.9,4,1.9,3,2.7,3
2012/8/16 2:27,2,4,2,3,3.1,3
2012/8/16 2:28,1.8,4,1.9,3,1.9,4
2012/8/16 2:29,1.7,4,1.8,3,1.6,2
2012/8/16 2:30,1.6,4,1.7,3,2.4,3
2012/8/16 2:31,1.6,3,1.6,3,2.2,2
2012/8/16 2:32,1.7,3,1.7,3,4.1,3
2012/8/16 2:33,1.7,3,1.7,3,3.9,3
2012/8/16 2:34,1.7,3,1.7,4,2.2,2
2012/8/16 2:35,1.7,3,1.7,4,2,2
2012/8/16 2:36,1.6,3,1.7,4,2.1,2
2012/8/16 2:37,1.6,2,1.6,4,2.7,3
2012/8/16 2:38,1.6,2,1.6,4,1.9,3
2012/8/16 2:39,1.6,2,1.6,4,1.8,3
2012/8/16 2:40,1.6,2,1.7,3,2.1,3
2012/8/16 2:41,1.6,2,1.6,3,3,3
2012/8/16 2:42,1.6,2,1.6,3,3.1,3
2012/8/16 2:43,1.5,2,1.5,3,2.2,3
2012/8/16 2:44,1.5,2,1.5,3,1.8,2
2012/8/16 2:45,1.5,2,1.5,3,1.8,3
2012/8/16 2:46,1.5,2,1.5,2,1.8,16
2012/8/16 2:47,1.4,2,1.4,2,2.6,1
2012/8/16 2:48,1.4,2,1.4,2,2.5,15
2012/8/16 2:49,1.5,2,1.5,2,2.1,1
2012/8/16 2:50,1.6,2,1.6,2,2.6,2
2012/8/16 2:51,1.6,2,1.6,2,3,1
2012/8/16 2:52,1.6,2,1.6,2,2.6,1
2012/8/16 2:53,1.6,1,1.6,2,2.2,1
2012/8/16 2:54,1.6,1,1.6,2,2.5,2
2012/8/16 2:55,1.6,1,1.6,2,2.2,2
2012/8/16 2:56,1.7,1,1.7,1,2.9,1
2012/8/16 2:57,1.7,2,1.8,1,2.9,3
2012/8/16 2:58,1.7,2,1.7,1,2.1,2
2012/8/16 2:59,1.7,2,1.7,1,2.1,3
2012/8/16 3:00,1.7,2,1.7,1,2.2,3
2012/8/16 3:01,1.7,2,1.7,1,1.9,3
2012/8/16 3:02,1.6,2,1.6,1,1.6,2
2012/8/16 3:03,1.6,2,1.6,1,2.6,3
2012/8/16 3:04,1.6,2,1.6,1,2.5,1
2012/8/16 3:05,1.6,2,1.6,1,3.3,2
2012/8/16 3:06,1.6,2,1.6,1,3.1,2
2012/8/16 3:07,1.6,2,1.6,2,3.2,3
2012/8/16 3:08,1.6,2,1.6,2,2.4,2
2012/8/16 3:09,1.7,2,1.7,2,2.7,1
2012/8/16 3:10,1.6,2,1.7,2,2.1,3
2012/8/16 3:11,1.6,2,1.6,2,2.1,2
2012/8/16 3:12,1.6,2,1.6,2,1.5,3
2012/8/16 3:13,1.5,2,1.6,2,1.8,2
2012/8/16 3:14,1.4,2,1.5,2,1.6,2
2012/8/16 3:15,1.4,2,1.4,2,2.7,3
2012/8/16 3:16,1.5,2,1.5,2,3.5,2
2012/8/16 3:17,1.5,2,1.5,2,2.2,3
2012/8/16 4:04,1.9,3,1.9,3,2,2
2012/8/16 4:05,1.9,3,1.9,3,2,2
2012/8/16 4:06,2.3,3,2.4,3,3,3
2012/8/16 4:07,2.2,3,2.3,3,2.7,3
2012/8/16 4:08,2.2,3,2.3,3,2.9,2
2012/8/16 4:09,2.3,3,2.3,3,3.1,3
2012/8/16 4:10,2.1,3,2.2,3,2.2,2
2012/8/16 4:11,2.1,3,2.1,3,2.5,3
2012/8/16 4:12,2.1,3,2.1,3,3,3
2012/8/16 4:13,2.1,3,2.1,3,2.9,3
2012/8/16 4:14,2,3,2.1,3,2.5,2
2012/8/16 4:15,2,2,2,3,2.1,3
2012/8/16 4:16,1.9,2,2,3,2,1
2012/8/16 4:17,1.8,2,1.9,3,2.4,2
2012/8/16 4:18,1.7,2,1.8,3,2.2,1
2012/8/16 4:19,1.6,2,1.7,3,2,2
2012/8/16 4:20,1.5,2,1.6,3,1.5,2
2012/8/16 4:21,1.5,2,1.6,3,2.5,2
2012/8/16 4:22,1.4,2,1.5,3,2.4,3
2012/8/16 4:23,1.4,2,1.4,3,2.5,3
2012/8/16 4:24,1.4,2,1.4,3,2.2,3
2012/8/16 4:25,1.5,2,1.5,2,2.6,3
2012/8/16 4:26,1.5,2,1.5,2,2.9,3
2012/8/16 4:27,1.6,2,1.6,2,3,3
2012/8/16 4:28,1.6,2,1.6,2,2.5,2
2012/8/16 4:29,1.7,2,1.7,2,2.7,3
2012/8/16 4:30,1.7,2,1.8,2,1.8,1
2012/8/16 4:31,1.7,2,1.7,2,1.5,16
2012/8/16 4:32,1.7,2,1.7,2,2.2,1
2012/8/16 4:33,1.7,2,1.7,2,2.1,2
2012/8/16 4:34,1.7,2,1.7,2,2.5,2
2012/8/16 4:35,1.7,2,1.7,2,3,2
2012/8/16 4:36,1.6,2,1.7,2,1.8,1
2012/8/16 4:37,1.5,1,1.6,2,2.4,2
2012/8/16 4:38,1.5,1,1.5,2,2.5,2
2012/8/16 4:39,1.5,1,1.5,2,2.6,2
2012/8/16 4:46,1.3,3,1.3,3,1.3,2
2012/8/16 4:47,1.4,2,1.4,3,1.9,3
2012/8/16 4:48,1.1,2,1.4,3,1.8,3
2012/8/16 4:49,1.4,2,1.4,3,3.1,3
2012/8/16 4:50,1.5,2,1.5,2,2.7,2
2012/8/16 4:51,1.6,2,1.6,2,2.7,2
2012/8/16 4:52,1.6,2,1.6,2,2,3
2012/8/16 4:53,1.5,2,1.6,2,2.1,3
2012/8/16 4:54,1.5,2,1.5,2,1.8,2
2012/8/16 4:55,1.5,2,1.5,2,2.1,2
2012/8/16 4:56,1.5,2,1.5,2,1.8,16
2012/8/16 4:57,1.4,2,1.5,2,1.9,2
2012/8/16 4:58,1.5,2,1.5,2,1.4,15
2012/8/16 4:59,1.4,2,1.5,2,1.6,1
2012/8/16 5:00,1.3,2,1.4,2,2.4,3
2012/8/16 5:01,1.2,2,1.3,2,1.4,3
2012/8/16 5:02,1.1,2,1.2,2,1.1,2
2012/8/16 5:03,1.2,2,1.2,2,1.6,2
2012/8/16 5:04,1.1,2,1.2,2,1.6,1
2012/8/16 5:05,1.1,2,1.1,2,1.8,2
2012/8/16 5:06,1.1,2,1.1,2,1.5,2
2012/8/16 5:07,1.1,2,1.1,2,1.8,2
2012/8/16 5:08,1.1,2,1.1,2,2.6,3
2012/8/16 5:09,1.1,2,1.1,2,2.6,3
2012/8/16 5:10,1.1,2,1.1,2,2,2
2012/8/16 5:11,1.1,2,1.1,2,1.9,1
2012/8/16 5:12,1.2,2,1.2,2,2.5,1
2012/8/16 6:22,1.3,2,1.3,2,1.4,2
2012/8/16 6:23,1.2,2,1.4,3,1.6,2
2012/8/16 6:24,1.3,2,1.4,3,2.4,2
2012/8/16 6:25,1.3,2,1.3,3,2.2,3
2012/8/16 6:26,1.3,2,1.3,3,1.8,2
2012/8/16 6:27,1.3,2,1.3,3,1.9,3
2012/8/16 6:28,1.2,2,1.3,3,1.9,1
2012/8/16 6:29,1.3,2,1.3,3,2.5,1
2012/8/16 6:30,1.3,2,1.3,3,1.9,2
2012/8/16 6:31,1.3,2,1.3,3,2,1
2012/8/16 6:32,1.3,2,1.3,3,2.5,2
2012/8/16 6:33,1.3,2,1.3,2,2,3
2012/8/16 6:34,1.3,2,1.4,2,2.5,3
2012/8/16 6:35,1.3,2,1.3,2,1.8,3
2012/8/16 6:36,1.4,2,1.4,2,2.6,4
2012/8/16 6:37,1.4,2,1.4,2,3,3
2012/8/16 6:38,1.5,2,1.5,2,3.2,3
2012/8/16 6:39,1.5,2,1.6,2,2.1,3
2012/8/16 6:40,1.5,2,1.5,2,2.1,2
2012/8/16 6:41,1.6,2,1.6,2,2.6,1
2012/8/16 6:42,1.5,2,1.5,2,2.2,2
2012/8/16 6:43,1.6,2,1.6,2,2.5,4
2012/8/16 6:44,1.6,3,1.6,2,2.1,4
2012/8/16 6:45,1.7,2,1.7,3,1.9,3
2012/8/16 6:46,1.6,2,1.7,3,2.1,4
2012/8/16 6:47,1.5,2,1.6,3,1.8,2
2012/8/16 6:48,1.4,2,1.5,3,1.8,2
2012/8/16 6:49,1.4,2,1.4,3,1.5,2
2012/8/16 6:50,1.4,2,1.4,3,1.6,2
2012/8/16 6:51,1.3,3,1.4,3,1.9,4
2012/8/16 6:52,1.3,3,1.4,3,2.1,3
2012/8/16 6:53,1.3,3,1.3,3,1.3,3
2012/8/16 6:54,1.2,2,1.3,3,1.5,1
2012/8/16 6:55,1.2,3,1.2,2,1.6,3
2012/8/16 6:56,1.1,3,1.2,2,1.6,4
2012/8/16 6:57,1.1,3,1.1,2,2,3
2012/8/16 6:58,1.2,3,1.2,2,2.1,3
2012/8/16 6:59,1.2,3,1.2,2,1.6,3
2012/8/16 7:00,1.2,3,1.2,2,1.5,2
2012/8/16 7:01,1.1,3,1.2,3,1.4,3
2012/8/16 7:02,1.1,3,1.1,3,3.1,2
2012/8/16 7:03,1.2,2,1.2,3,2.7,1
2012/8/16 7:04,1.3,2,1.3,2,2.6,2
2012/8/16 7:05,1.3,2,1.3,2,2,2
2012/8/16 7:06,1.5,2,1.5,2,2.4,3
2012/8/16 7:07,1.4,2,1.5,2,1.9,2
2012/8/16 7:08,1.4,2,1.4,2,1.8,3
2012/8/16 7:09,1.5,2,1.5,2,2.2,3
2012/8/16 7:10,1.5,2,1.5,2,2,3
2012/8/16 7:11,1.6,2,1.6,2,2.6,4
2012/8/16 7:12,1.7,3,1.7,2,3.3,3
2012/8/16 7:13,1.7,3,1.7,2,2.7,3
2012/8/16 7:14,1.7,3,1.7,2,2.5,3
2012/8/16 7:15,1.7,3,1.7,2,3,1
2012/8/16 7:16,1.7,3,1.7,2,2.9,3
2012/8/16 7:17,1.8,3,1.8,3,3.3,4
2012/8/16 7:18,1.8,3,1.8,3,3.5,4
2012/8/16 7:19,1.8,3,1.8,3,2.7,4
2012/8/16 7:20,1.8,3,1.8,3,2.9,4
2012/8/16 7:21,1.8,3,1.8,3,1.9,4
2012/8/16 7:22,1.7,3,1.8,3,2,4
2012/8/16 7:23,1.7,3,1.7,3,3.2,4
2012/8/16 7:24,1.8,3,1.8,3,3.7,3
2012/8/16 7:25,1.8,3,1.8,3,3.2,4
2012/8/16 7:26,1.9,3,1.9,3,3,3
2012/8/16 7:27,1.9,4,1.9,3,2.6,3
2012/8/16 7:28,1.8,4,1.9,3,2.2,4
2012/8/16 7:29,1.8,4,1.8,3,1.9,4
2012/8/16 7:30,1.7,4,1.8,3,2,6
2012/8/16 7:31,1.8,4,1.8,3,2.1,5
2012/8/16 7:32,1.8,4,1.8,3,3.2,5
2012/8/16 7:33,1.8,4,1.8,3,3.3,5
2012/8/16 7:34,1.9,5,1.9,3,3.5,5
2012/8/16 7:35,1.9,5,1.9,3,3.2,5
2012/8/16 7:36,1.8,5,1.9,3,3.3,5
2012/8/16 7:37,1.9,5,1.9,4,3.7,5
2012/8/16 7:38,2,5,2,5,3,5
2012/8/16 7:39,2.1,5,2.1,5,3.2,4
2012/8/16 7:40,2.2,5,2.3,5,3.6,4
2012/8/16 7:41,2.3,5,2.3,5,3.1,5
2012/8/16 7:42,2.3,5,2.3,5,2.6,6
2012/8/16 7:43,2.1,5,2.3,5,2,5
2012/8/16 7:44,2.1,5,2.1,5,2.4,4
2012/8/16 7:45,2,5,2.1,5,1.8,4
2012/8/16 7:46,1.9,5,2,5,1.8,3
2012/8/16 7:47,1.8,4,1.9,5,2.5,4
2012/8/16 7:48,1.8,4,1.8,5,3.1,4
2012/8/16 7:49,1.8,4,1.8,5,3,4
2012/8/16 7:50,1.7,4,1.8,5,3.1,4
2012/8/16 7:51,1.7,4,1.8,5,3.3,7
2012/8/16 7:52,1.7,4,1.7,5,2.6,7
2012/8/16 7:53,1.7,5,1.7,5,1.8,8
2012/8/16 7:54,1.6,5,1.7,5,1.8,6
2012/8/16 7:55,1.6,5,1.6,5,2.2,6
2012/8/16 7:56,1.6,6,1.6,5,1.8,7
2012/8/16 7:57,1.6,6,1.6,4,2.4,8
2012/8/16 7:58,1.5,6,1.6,4,2.4,6
2012/8/16 7:59,1.5,6,1.5,4,2.4,5
2012/8/16 8:00,1.3,7,1.4,4,1.6,3
2012/8/16 8:01,1.3,7,1.3,4,2.5,5
2012/8/16 8:02,1.3,6,1.3,4,2.6,5
2012/8/16 8:03,1.3,6,1.3,5,1.8,6
2012/8/16 8:04,1.4,6,1.4,5,2.6,5
2012/8/16 8:05,1.5,5,1.5,5,2.5,5
2012/8/16 8:06,1.5,5,1.5,6,1.4,4
2012/8/16 8:07,1.4,5,1.5,6,1,5
2012/8/16 8:08,1.3,4,1.4,6,1.3,4
2012/8/16 8:09,1.2,4,1.3,6,1.3,15
2012/8/16 8:10,1.2,4,1.2,6,1.9,3
2012/8/16 8:11,1.2,4,1.2,6,1.5,3
2012/8/16 8:12,1.1,4,1.2,6,1.3,4
2012/8/16 8:13,1.1,4,1.1,6,1.3,3
2012/8/16 8:14,1,3,1.1,6,1.6,1
2012/8/16 8:15,1,4,1,5,1.4,5
2012/8/16 8:16,0.9,4,0.9,5,1.4,5
2012/8/16 8:17,1,4,1,5,1.3,6
2012/8/16 8:18,1,4,1,4,1.6,4
2012/8/16 8:19,1.1,4,1.1,4,2.5,5
2012/8/16 8:20,1.1,4,1.1,4,2.2,5
2012/8/16 8:21,1.1,5,1.1,4,1.8,5
2012/8/16 8:22,1.2,5,1.2,5,2,4
2012/8/16 8:23,1.2,5,1.2,5,2,5
2012/8/16 8:24,1.2,5,1.2,5,1.3,5
2012/8/16 8:25,1.2,5,1.2,5,2.1,2
2012/8/16 8:26,1.3,4,1.3,4,2.4,4
2012/8/16 8:27,1.4,4,1.4,4,2.6,3
2012/8/16 8:28,1.5,4,1.5,4,3.2,6
2012/8/16 8:29,1.5,4,1.5,4,2.7,6
2012/8/16 8:30,1.5,4,1.5,4,2.2,4
2012/8/16 8:31,1.6,4,1.6,4,2.4,5
2012/8/16 8:32,1.6,4,1.6,4,2.1,5
2012/8/16 8:33,1.5,4,1.6,4,1.6,3
2012/8/16 8:34,1.6,4,1.6,4,2,7
2012/8/16 8:35,1.5,5,1.6,4,1.5,5
2012/8/16 8:36,1.5,5,1.5,4,1.5,5
2012/8/16 8:37,1.3,5,1.4,4,1,3
2012/8/16 8:38,1.2,4,1.3,4,1.4,3
2012/8/16 8:39,1.1,4,1.2,4,0.8,4
2012/8/16 8:40,1,4,1.1,4,0.8,4
2012/8/16 8:41,0.9,4,1,4,1.9,6
2012/8/16 8:42,0.9,4,0.9,4,1.8,6
2012/8/16 8:43,0.9,5,0.9,4,1,5
2012/8/16 8:44,0.8,5,0.9,4,2,6
2012/8/16 8:45,0.9,5,0.9,5,2,8
2012/8/16 8:46,0.9,5,0.9,5,1.8,10
2012/8/16 8:47,0.9,6,0.9,5,1.6,9
2012/8/16 8:48,0.9,6,0.9,4,1.8,7
2012/8/16 8:49,0.9,7,0.9,4,1.3,9
2012/8/16 8:50,0.9,7,0.9,4,1.5,8
2012/8/16 8:51,0.9,7,0.9,4,1.6,8
2012/8/16 8:52,0.9,7,0.9,5,2.2,8
2012/8/16 8:53,0.8,8,0.9,5,1,5
2012/8/16 8:54,0.9,7,0.9,5,1.9,5
2012/8/16 8:55,0.8,7,0.9,5,1.4,4
2012/8/16 8:56,0.7,7,0.8,5,0.3,9
2012/8/16 8:57,0.7,7,0.7,6,1.5,10
2012/8/16 8:58,0.7,7,0.7,6,2.1,9
2012/8/16 8:59,0.9,8,0.9,7,2.5,10
2012/8/16 9:00,0.9,8,0.9,7,2.5,9
2012/8/16 9:01,1,8,1,8,2.7,9
2012/8/16 9:02,1,8,1.1,8,3,9
2012/8/16 9:03,1.1,8,1.1,8,1.8,10
2012/8/16 9:04,1.2,9,1.2,8,3.2,8
2012/8/16 9:05,1.3,9,1.3,9,2.4,7
2012/8/16 9:06,1.4,8,1.4,9,2.4,6
2012/8/16 9:07,1.5,8,1.5,8,1.8,6
2012/8/16 9:08,1.5,8,1.5,8,2.1,8
2012/8/16 9:09,1.4,8,1.5,8,1.8,8
2012/8/16 9:10,1.3,8,1.4,8,1.9,7
2012/8/16 9:11,1.3,7,1.3,8,1.3,7
2012/8/16 9:12,1.2,8,1.3,8,1.4,8
2012/8/16 9:13,1.2,8,1.2,8,1.9,8
2012/8/16 9:14,1.1,8,1.2,8,1.3,8
2012/8/16 9:15,1.1,8,1.1,8,2.2,8
2012/8/16 9:16,1,8,1.1,8,0.8,9
2012/8/16 9:17,0.9,8,0.9,8,2,9
2012/8/16 9:18,0.9,9,0.9,8,2.4,9
2012/8/16 9:19,0.9,9,0.9,8,1,9
2012/8/16 9:20,0.8,9,0.9,8,0.4,9
2012/8/16 9:21,0.7,9,0.8,7,1.3,8
2012/8/16 9:22,0.8,8,0.8,8,1.8,6
2012/8/16 9:23,0.9,8,0.9,8,3.3,8
2012/8/16 9:24,1,8,1,8,2.7,7
2012/8/16 9:25,1.1,8,1.1,8,3.5,9
2012/8/16 9:26,1.3,8,1.3,8,3.5,10
2012/8/16 9:27,1.4,8,1.4,8,2.9,8
2012/8/16 9:28,1.5,8,1.5,8,2.7,9
2012/8/16 9:29,1.6,8,1.6,8,2.5,8
2012/8/16 9:30,1.7,8,1.7,8,1.4,8
2012/8/16 9:31,1.7,8,1.8,8,1.4,7
2012/8/16 9:32,1.7,8,1.7,8,1.4,2
2012/8/16 9:33,1.6,8,1.7,8,1.4,2
2012/8/16 9:34,1.5,8,1.6,8,1.6,8
2012/8/16 9:35,1.3,8,1.5,8,0.8,6
2012/8/16 9:36,1.1,8,1.3,8,0.8,14
2012/8/16 9:37,1,7,1.1,8,1.6,8
2012/8/16 9:38,0.9,7,1,8,1.4,8
2012/8/16 9:39,0.9,7,0.9,8,2.2,11
2012/8/16 9:40,0.9,8,0.9,8,2.5,10
2012/8/16 9:41,1,8,1,8,2.5,11
2012/8/16 9:42,1,9,1,8,1.9,10
2012/8/16 9:43,1,10,1,8,1.3,10
2012/8/16 9:44,0.9,10,1,8,0.9,10
2012/8/16 9:45,0.9,10,0.9,8,1.3,11
2012/8/16 9:46,1,10,1,8,1.3,11
2012/8/16 9:47,1,11,1,7,1,12
2012/8/16 9:48,0.9,11,1,8,1.3,13
2012/8/16 9:49,0.9,12,0.9,8,1.5,16
2012/8/16 9:50,0.8,12,0.9,8,1.6,1
2012/8/16 9:51,0.8,13,0.8,8,1.4,1
2012/8/16 9:52,0.7,13,0.8,9,0.9,2
2012/8/16 9:53,0.7,14,0.7,10,0.3,12
2012/8/16 9:54,0.7,14,0.7,10,1.4,6
2012/8/16 9:55,0.7,14,0.7,10,2.2,6
2012/8/16 9:56,0.8,15,0.8,10,2.1,6
2012/8/16 9:57,0.8,16,0.9,11,2.1,8
2012/8/16 9:58,0.8,16,0.8,11,0.6,7
2012/8/16 9:59,0.7,16,0.8,12,0.5,14
2012/8/16 10:00,0.7,1,0.7,15,1.1,8
2012/8/16 10:01,0.8,5,0.8,15,2.9,4
2012/8/16 10:02,1,5,1,5,2.7,5
2012/8/16 10:03,1.2,5,1.2,5,2.7,5
2012/8/16 10:04,1.2,5,1.3,5,2,6
2012/8/16 10:05,1.2,6,1.2,5,1.1,8
2012/8/16 10:06,1.1,6,1.2,5,1.8,8
2012/8/16 10:07,1,6,1.1,5,0.8,7
2012/8/16 10:08,1,6,1.1,5,0.9,14
2012/8/16 10:09,1,5,1,5,0.3,15
2012/8/16 10:10,1,6,1,5,1.1,14
2012/8/16 10:11,0.8,7,1,5,0.9,10
2012/8/16 10:12,0.7,9,0.8,5,0.9,8
2012/8/16 10:13,0.5,12,0.6,5,0.8,14
2012/8/16 10:14,0.5,12,0.5,6,1.9,6
2012/8/16 10:15,0.5,14,0.5,6,1.6,5
2012/8/16 10:16,0.6,16,0.6,6,2,6
2012/8/16 10:17,0.7,2,0.7,6,2,5
2012/8/16 10:18,0.7,5,0.7,6,2.9,6
2012/8/16 10:19,1,5,1,5,3.3,5
2012/8/16 10:20,1.1,5,1.1,5,3,5
2012/8/16 10:21,1.2,5,1.2,5,2,7
2012/8/16 10:22,1.3,5,1.3,5,3.2,7
2012/8/16 10:23,1.5,6,1.5,6,3,6
2012/8/16 10:24,1.6,6,1.6,6,2.5,6
2012/8/16 10:25,1.5,6,1.6,6,1.4,5
2012/8/16 10:26,1.5,6,1.5,6,1.6,5
2012/8/16 10:27,1.3,6,1.5,6,0.9,5
2012/8/16 10:28,1.3,7,1.4,6,1,11
2012/8/16 10:29,1.1,7,1.3,6,0.9,10
2012/8/16 10:30,1,8,1.1,6,1.3,8
2012/8/16 10:31,0.9,8,1,6,1.3,7
2012/8/16 10:32,0.9,8,0.9,6,0.9,9
2012/8/16 10:33,0.8,8,0.8,6,1.9,3
2012/8/16 10:34,0.7,8,0.7,6,1.9,2
2012/8/16 10:35,0.7,7,0.7,6,1.6,6
2012/8/16 10:36,0.8,7,0.8,6,2.7,3
2012/8/16 10:37,1,7,1,6,2.9,3
2012/8/16 10:38,1.1,6,1.1,7,2.5,4
2012/8/16 10:39,1.2,5,1.2,6,2.5,2
2012/8/16 10:40,1.3,5,1.3,5,2,3
2012/8/16 10:41,1.3,4,1.3,5,2.2,6
2012/8/16 10:42,1.4,4,1.4,4,2.6,6
2012/8/16 10:43,1.4,4,1.5,4,2.2,5
2012/8/16 10:44,1.4,4,1.4,4,1.9,6
2012/8/16 10:45,1.4,4,1.5,4,1.8,5
2012/8/16 10:46,1.5,4,1.5,4,3.3,5
2012/8/16 10:47,1.5,4,1.5,4,3.6,5
2012/8/16 10:48,1.6,4,1.6,4,3.3,6
2012/8/16 10:49,1.5,4,1.6,4,2.4,5
2012/8/16 10:50,1.4,5,1.5,4,0.4,5
2012/8/16 10:51,1.4,5,1.4,4,4.2,6
2012/8/16 10:52,1.5,5,1.5,4,4.1,6
2012/8/16 10:53,1.6,5,1.6,4,3.3,5
2012/8/16 10:54,1.7,5,1.7,5,2.4,3
2012/8/16 10:55,1.6,5,1.7,5,1.5,3
2012/8/16 10:56,1.6,5,1.6,5,3.2,5
2012/8/16 10:57,1.5,5,1.6,5,3,6
2012/8/16 10:58,1.4,5,1.5,5,1.8,5
2012/8/16 10:59,1.4,5,1.4,5,1.6,7
2012/8/16 11:00,1.5,5,1.5,5,3.5,7
2012/8/16 11:01,1.6,5,1.7,5,3.7,5
2012/8/16 11:02,1.6,5,1.6,5,3.3,4
2012/8/16 11:03,1.4,4,1.6,5,0.6,1
2012/8/16 11:04,1.3,5,1.4,5,0.9,6
2012/8/16 11:05,1.3,5,1.3,5,2.6,4
2012/8/16 11:06,1.3,5,1.4,5,2.6,4
2012/8/16 11:07,1.3,5,1.3,5,2,4
2012/8/16 11:19,3.5,8,3.5,8,3.6,8
2012/8/16 11:20,3.1,8,4,8,4.9,8
2012/8/16 11:21,2.4,8,2.9,8,3.3,8
2012/8/16 11:22,2,8,2.3,8,1.9,7
2012/8/16 11:23,1.9,7,2,8,2.4,5
2012/8/16 11:24,1.7,7,1.9,8,2,3
2012/8/16 11:25,1.7,6,1.7,8,3.1,4
2012/8/16 11:26,1.8,6,1.8,8,3.1,2
2012/8/16 11:27,1.7,6,1.8,8,2.5,3
2012/8/16 11:28,1.6,6,1.7,8,2,10
2012/8/16 11:29,1.5,6,1.6,8,3.2,9
2012/8/16 11:30,1.5,6,1.5,8,3.7,9
2012/8/16 11:31,1.4,6,1.5,8,3.2,9
2012/8/16 11:32,1.6,6,1.6,8,4.3,6
2012/8/16 11:33,1.6,6,1.6,7,3.3,7
2012/8/16 11:34,1.7,7,1.7,6,2.4,8
2012/8/16 11:35,1.7,7,1.7,6,3.5,4
2012/8/16 11:36,1.7,7,1.7,6,3.5,5
2012/8/16 11:37,1.8,7,1.8,7,3.7,5
2012/8/16 11:38,2,6,2,7,3.9,4
2012/8/16 11:39,2.1,6,2.1,6,3.2,5
2012/8/16 11:40,2.1,6,2.1,6,3.2,5
2012/8/16 11:41,2.2,5,2.2,5,4.1,7
2012/8/16 11:42,2.2,6,2.3,6,3.7,6
2012/8/16 11:43,2.1,5,2.2,6,3.1,6
2012/8/16 11:44,2.2,6,2.2,6,3.5,8
2012/8/16 11:45,2.1,6,2.2,6,2.9,7
2012/8/16 11:46,1.9,6,2,6,1.5,7
2012/8/16 11:47,1.8,6,1.9,6,2.7,7
2012/8/16 11:48,1.7,6,1.8,6,2.5,6
2012/8/16 11:49,1.5,6,1.7,6,1.8,6
2012/8/16 11:50,1.4,6,1.5,6,1.4,4
2012/8/16 11:51,1.2,6,1.4,6,1.1,8
2012/8/16 11:52,1.1,6,1.2,6,2.1,6
2012/8/16 11:53,1,7,1.1,5,3.1,7
2012/8/16 11:59,1.1,16,1.1,16,1.1,15
2012/8/16 12:00,1,4,1.1,16,1.9,7
2012/8/16 12:01,1.1,8,1.1,16,2.5,8
2012/8/16 12:02,1,8,1.1,16,2,8
2012/8/16 12:03,1,9,1.1,16,2.1,7
2012/8/16 12:04,1.1,8,1.1,16,2.7,8
2012/8/16 12:05,1.1,8,1.1,16,2,10
2012/8/16 12:06,1,9,1.1,16,1.5,9
2012/8/16 12:07,1,8,1,16,1.9,6
2012/8/16 12:08,1.1,8,1.1,16,2.6,8
2012/8/16 12:09,1.1,8,1.1,16,2.2,8
2012/8/16 12:10,1.1,9,1.1,5,1.5,7
2012/8/16 12:11,1,8,1.1,8,1.1,1
2012/8/16 12:12,1,8,1,8,1.5,9
2012/8/16 12:13,1.2,8,1.2,8,3.2,6
2012/8/16 12:14,1.2,8,1.2,8,3.3,8
2012/8/16 12:15,1.2,8,1.2,8,1.6,9
2012/8/16 12:16,1.2,7,1.2,8,2.7,6
2012/8/16 12:17,1.3,7,1.3,7,2.6,6
2012/8/16 12:18,1.2,7,1.3,7,1.9,7
2012/8/16 12:19,1.2,7,1.2,7,2.5,7
2012/8/16 12:20,1.2,6,1.2,7,1.8,9
2012/8/16 12:21,1.3,6,1.3,7,3,5
2012/8/16 12:22,1.5,6,1.5,6,2.9,5
2012/8/16 12:23,1.4,6,1.5,6,2,9
2012/8/16 12:24,1.3,6,1.4,6,1.5,6
2012/8/16 12:25,1.4,6,1.4,6,3.7,5
2012/8/16 12:26,1.5,6,1.5,6,3.2,4
2012/8/16 12:27,1.5,6,1.5,6,3.7,6
2012/8/16 12:28,1.8,6,1.8,6,3.9,6
2012/8/16 12:29,1.9,6,1.9,6,3.7,7
2012/8/16 12:30,2,6,2,6,2.9,7
2012/8/16 12:31,1.9,6,2,6,3.7,7
2012/8/16 12:32,1.9,6,1.9,6,2.5,7
2012/8/16 12:33,1.9,7,1.9,6,3.3,9
2012/8/16 12:34,2,7,2,6,3.5,9
2012/8/16 12:35,1.9,7,2,6,2.4,6
2012/8/16 12:36,1.8,7,1.9,6,2.1,5
2012/8/16 12:37,1.7,7,1.8,6,0.9,4
2012/8/16 12:38,1.5,7,1.6,6,2,3
2012/8/16 12:39,1.3,8,1.5,6,2.7,10
2012/8/16 12:40,1.3,8,1.3,6,3.3,9
2012/8/16 12:41,1.3,8,1.4,7,3.5,8
2012/8/16 12:42,1.3,8,1.3,7,1.6,10
2012/8/16 12:43,1.2,8,1.3,7,2.6,8
2012/8/16 12:44,1.2,7,1.2,7,3.3,8
2012/8/16 12:45,1.3,8,1.3,7,3.1,6
2012/8/16 12:46,1.3,8,1.3,7,2.9,7
2012/8/16 12:47,1.5,8,1.5,7,4.4,9
2012/8/16 12:48,1.6,8,1.6,8,3.9,9
2012/8/16 12:49,1.7,9,1.7,8,3.3,9
2012/8/16 12:50,1.7,8,1.7,8,3.5,9
2012/8/16 12:51,1.6,9,1.7,8,3.1,10
2012/8/16 12:52,1.6,9,1.6,8,2.6,9
2012/8/16 12:53,1.8,9,1.8,9,3.5,9
2012/8/16 12:54,1.8,9,1.8,9,3.8,6
2012/8/16 12:55,1.8,8,1.8,9,2.7,4
2012/8/16 12:56,1.7,8,1.8,9,1.5,7
2012/8/16 12:57,1.5,8,1.7,9,2.1,6
2012/8/16 12:58,1.5,7,1.6,9,2.6,6
2012/8/16 12:59,1.4,7,1.4,9,1.9,5
2012/8/16 13:00,1.4,7,1.4,9,3.5,9
2012/8/16 13:01,1.4,7,1.4,9,3.3,8
2012/8/16 13:02,1.4,7,1.4,9,1.6,9
2012/8/16 13:03,1.3,7,1.4,9,1.3,8
2012/8/16 13:04,1.2,8,1.3,9,2.5,12
2012/8/16 13:05,1.2,9,1.2,8,2,11
2012/8/16 13:06,1.2,10,1.2,8,1.1,12
2012/8/16 13:07,1.1,11,1.2,7,1.1,14
2012/8/16 13:08,1.1,11,1.1,7,1.1,13
2012/8/16 13:09,1.1,11,1.1,7,1.5,8
2012/8/16 13:10,1,11,1.1,7,2.7,7
2012/8/16 13:11,0.9,11,1,7,1.1,2
2012/8/16 13:12,1,11,1,7,1.5,8
2012/8/16 13:13,1.1,11,1.1,7,2.5,6
2012/8/16 13:14,1.1,10,1.1,8,2.7,6
2012/8/16 13:15,1.2,9,1.2,9,4.9,8
2012/8/16 13:16,1.4,8,1.4,8,4.7,8
2012/8/16 13:17,1.5,7,1.5,7,3.2,7
2012/8/16 13:18,1.6,7,1.6,7,3.9,9
2012/8/16 13:19,1.9,7,1.9,7,3.8,8
2012/8/16 13:20,2,7,2,7,3.6,8
2012/8/16 13:21,2,7,2,7,2.1,8
2012/8/16 13:22,2.2,7,2.2,7,4.8,8
2012/8/16 13:23,2.2,8,2.2,7,3.8,10
2012/8/16 13:24,2.2,8,2.2,7,1.9,12
2012/8/16 13:25,2.1,8,2.2,7,4.1,10
2012/8/16 13:26,2.1,8,2.1,7,3.1,11
2012/8/16 13:27,2.1,9,2.1,7,3.1,11
2012/8/16 13:28,2,9,2.1,7,2.6,10
2012/8/16 13:29,1.9,9,2,7,2,10
2012/8/16 13:30,1.7,10,1.8,7,1.4,12
2012/8/16 13:31,1.8,10,1.8,7,2.4,9
2012/8/16 13:32,1.7,10,1.8,7,3.6,8
2012/8/16 13:33,1.7,10,1.7,8,3.6,8
2012/8/16 13:34,1.7,10,1.7,8,2.6,7
2012/8/16 13:35,1.8,9,1.8,8,5.6,8
2012/8/16 13:36,1.8,9,1.8,8,4.2,8
2012/8/16 13:37,1.9,9,1.9,9,4.2,9
2012/8/16 13:38,1.9,9,1.9,9,4.2,8
2012/8/16 13:39,1.9,9,1.9,9,2.6,13
2012/8/16 13:40,1.9,9,1.9,9,1.9,11
2012/8/16 13:41,1.9,9,1.9,9,2.6,12
2012/8/16 13:42,1.9,10,1.9,9,2.9,12
2012/8/16 13:43,1.9,10,2,10,3.3,13
2012/8/16 13:44,2,11,2,10,3.2,13
2012/8/16 13:45,1.9,11,2.1,11,3,11
2012/8/16 13:46,1.7,12,1.9,11,2.4,12
2012/8/16 13:47,1.7,12,1.7,11,2.9,13
2012/8/16 13:48,1.6,12,1.6,11,2.5,11
2012/8/16 13:49,1.6,12,1.6,11,1,12
2012/8/16 13:50,1.5,12,1.5,11,0.9,13
2012/8/16 13:51,1.5,13,1.5,11,1.4,12
2012/8/16 13:52,1.3,13,1.5,11,1.1,14
2012/8/16 13:53,1.2,12,1.3,11,1,13
2012/8/16 13:54,1.2,12,1.2,11,4.3,9
2012/8/16 13:55,1.2,12,1.2,11,3.1,9
2012/8/16 13:56,1.3,12,1.3,12,3.3,10
2012/8/16 13:57,1.3,11,1.3,12,3.5,10
2012/8/16 13:58,1.3,11,1.3,12,2.2,9
2012/8/16 13:59,1.3,10,1.3,12,1.5,9
2012/8/16 14:00,1.4,10,1.4,12,2.9,9
2012/8/16 14:01,1.5,10,1.5,13,3,9
2012/8/16 14:02,1.6,10,1.6,10,2.2,10
2012/8/16 14:03,1.7,10,1.7,10,2.5,11
2012/8/16 14:04,1.6,10,1.7,10,2.2,8
2012/8/16 14:05,1.4,10,1.5,10,1.9,9
2012/8/16 14:06,1.4,10,1.5,10,2.6,9
2012/8/16 14:07,1.4,10,1.4,10,3.6,9
2012/8/16 14:08,1.6,10,1.6,10,3.7,12
2012/8/16 14:09,1.7,11,1.7,10,3,12
2012/8/16 14:10,1.8,11,1.8,11,4.5,9
2012/8/16 14:11,1.8,11,1.8,11,3.7,9
2012/8/16 14:12,1.8,11,1.8,11,2.6,9
2012/8/16 14:13,1.8,11,1.8,11,2.6,10
2012/8/16 14:14,1.8,11,1.8,11,3.2,10
2012/8/16 14:15,1.9,11,1.9,11,2.9,10
2012/8/16 14:16,1.9,11,1.9,11,3.5,11
2012/8/16 14:17,1.9,11,1.9,11,3.1,10
2012/8/16 14:18,1.8,11,1.9,11,3.3,10
2012/8/16 14:19,1.8,10,1.8,11,3.1,11
2012/8/16 14:20,1.8,10,1.9,11,2.9,11
2012/8/16 14:21,1.8,10,1.8,11,2.4,9
2012/8/16 14:22,1.7,10,1.8,11,2.2,9
2012/8/16 14:23,1.7,10,1.8,11,2.4,9
2012/8/16 14:24,1.5,10,1.6,11,1.3,11
2012/8/16 14:25,1.6,10,1.6,11,1.9,11
2012/8/16 14:26,1.4,10,1.5,11,1.4,10
2012/8/16 14:27,1.2,10,1.3,11,1.1,7
2012/8/16 14:28,1.1,10,1.2,10,1.9,8
2012/8/16 14:29,1.1,10,1.1,10,2.6,8
2012/8/16 14:30,1.1,9,1.1,10,2.1,9
2012/8/16 14:31,1.1,9,1.1,10,2.2,8
2012/8/16 14:32,1,9,1.1,10,1.4,9
2012/8/16 14:33,0.9,9,1,10,0.5,7
2012/8/16 14:34,0.9,9,0.9,10,0.5,15
2012/8/16 14:35,0.8,8,0.9,10,1.4,2
2012/8/16 14:36,0.9,8,0.9,10,1,12
2012/8/16 14:37,0.9,9,0.9,10,1,9
2012/8/16 14:38,1,9,1,10,2.5,11
2012/8/16 14:39,0.8,10,0.9,10,1.1,11
2012/8/16 14:40,0.7,10,0.8,9,1.1,11
2012/8/16 14:41,0.7,10,0.7,9,1.3,10
2012/8/16 14:42,0.7,10,0.7,9,2.2,9
2012/8/16 14:43,0.8,10,0.8,9,2.5,9
2012/8/16 14:44,0.9,10,0.9,9,3.5,9
2012/8/16 14:45,1,10,1,9,3.2,11
2012/8/16 14:46,1.2,10,1.2,10,3.9,8
2012/8/16 14:47,1.5,10,1.5,10,4.4,9
2012/8/16 14:48,1.6,9,1.6,9,4.2,9
2012/8/16 14:49,1.8,9,1.8,9,3.6,9
2012/8/16 14:50,1.9,9,1.9,9,3.5,8
2012/8/16 14:51,2,9,2,9,3.2,9
2012/8/16 14:52,2,9,2,9,2,9
2012/8/16 14:53,2,9,2,9,1.6,7
2012/8/16 14:54,1.9,9,2,9,1.5,7
2012/8/16 14:55,1.9,9,1.9,9,3.1,9
2012/8/16 14:56,1.8,8,1.9,9,1.9,8
2012/8/16 14:57,1.6,9,1.8,9,2,9
2012/8/16 14:58,1.5,9,1.6,9,2.7,9
2012/8/16 14:59,1.4,9,1.5,9,3.2,9
2012/8/16 15:00,1.3,9,1.4,9,3.2,8
2012/8/16 15:01,1.2,8,1.3,9,1.6,10
2012/8/16 15:02,1.2,8,1.2,9,1.4,9
2012/8/16 15:03,1.2,8,1.2,9,1.9,6
2012/8/16 15:04,1.2,8,1.2,9,1.8,6
2012/8/16 15:05,1,8,1.2,9,0.4,6
2012/8/16 15:06,0.9,8,1,8,0.8,8
2012/8/16 15:07,0.9,8,0.9,9,1.8,8
2012/8/16 15:08,0.8,7,0.9,9,2,12
2012/8/16 15:09,0.7,7,0.8,9,1.8,11
2012/8/16 15:10,0.7,8,0.7,9,1,10
2012/8/16 15:11,0.6,8,0.7,8,1.3,13
2012/8/16 15:12,0.7,9,0.7,8,2,10
2012/8/16 15:13,0.7,9,0.7,8,1.8,10
2012/8/16 15:14,0.7,10,0.7,8,1.6,9
2012/8/16 15:15,0.8,10,0.8,8,1.3,9
2012/8/16 15:16,0.8,10,0.8,8,1.9,10
2012/8/16 15:17,0.9,10,0.9,7,2.5,8
2012/8/16 15:18,1,10,1,10,2.6,9
2012/8/16 15:19,1,10,1,10,2.1,9
2012/8/16 15:20,1.1,9,1.1,10,2.1,9
2012/8/16 15:21,1.2,9,1.2,9,2.4,9
2012/8/16 15:22,1.2,9,1.2,9,2.4,9
2012/8/16 15:23,1.1,9,1.2,9,2.4,9
2012/8/16 15:24,1.2,9,1.2,9,2.4,9
2012/8/16 15:25,1.3,9,1.3,9,1.5,9
2012/8/16 15:26,1.2,9,1.2,9,1.4,9
2012/8/16 15:27,1.2,9,1.2,9,1.3,10
2012/8/16 15:28,1.1,10,1.2,9,1.6,10